This is the latest recevied weather packets stored in our database for station/object PA3CPS. If no packets are shown the sender has not sent any weather packets the latest 10 day(s).
| Time | Temp. | Humidity | Pressure | Rain* | Wind** | Luminosity | Snow |
|---|---|---|---|---|---|---|---|
| 1777706153 | 17.22° C | 53% | 1017.6 hPa | 0 mm | - | 452 W/m² | - |
| 1777705854 | 17.22° C | 53% | 1017.7 hPa | 0 mm | - | 478 W/m² | - |
| 1777705549 | 16.67° C | 54% | 1017.8 hPa | 0 mm | - | 434 W/m² | - |
| 1777705261 | 16.67° C | 55% | 1017.8 hPa | 0 mm | - | 404 W/m² | - |
| 1777704933 | 16.11° C | 56% | 1018 hPa | 0 mm | - | 387 W/m² | - |
| 1777704631 | 16.11° C | 56% | 1017.9 hPa | 0 mm | - | 378 W/m² | - |
| 1777704332 | 15.56° C | 57% | 1018 hPa | 0 mm | - | 392 W/m² | - |
| 1777704030 | 15.56° C | 57% | 1018 hPa | 0 mm | - | 374 W/m² | - |
| 1777703728 | 15.56° C | 58% | 1017.9 hPa | 0 mm | - | 315 W/m² | - |
| 1777703427 | 15.56° C | 57% | 1017.8 hPa | 0 mm | - | 185 W/m² | - |
| 1777703125 | 15° C | 57% | 1017.8 hPa | 0 mm | - | 162 W/m² | - |
| 1777702824 | 15° C | 57% | 1017.7 hPa | 0 mm | - | 315 W/m² | - |
| 1777702524 | 15° C | 58% | 1017.7 hPa | 0 mm | - | 297 W/m² | - |
| 1777702221 | 14.44° C | 60% | 1017.6 hPa | 0 mm | - | 172 W/m² | - |
| 1777701921 | 13.89° C | 61% | 1017.7 hPa | 0 mm | - | 148 W/m² | - |
| 1777701623 | 12.78° C | 64% | 1017.7 hPa | 0 mm | - | 95 W/m² | - |
| 1777701315 | 12.78° C | 64% | 1017.6 hPa | 0 mm | - | 172 W/m² | - |
| 1777701011 | 12.78° C | 64% | 1017.6 hPa | 0 mm | - | 60 W/m² | - |
| 1777700712 | 12.22° C | 65% | 1017.5 hPa | 0 mm | - | 35 W/m² | - |
| 1777700403 | 12.22° C | 65% | 1017.4 hPa | 0 mm | - | 32 W/m² | - |
| 1777700105 | 12.22° C | 65% | 1017.5 hPa | 0 mm | - | 30 W/m² | - |
| 1777699818 | 11.67° C | 65% | 1017.7 hPa | 0 mm | - | 30 W/m² | - |
| 1777699516 | 11.67° C | 66% | 1017.7 hPa | 0 mm | - | 28 W/m² | - |
| 1777699205 | 11.67° C | 66% | 1017.7 hPa | 0 mm | - | 26 W/m² | - |
| 1777698918 | 11.67° C | 66% | 1017.7 hPa | 0 mm | - | 25 W/m² | - |
* Rain latest hour (hover to see other rain measurements)
** Current wind speed in m/s (hover to see current wind gust speed)